Location: *
(47.6569°N, 7.4256°E)
Time: 20:03:04
(UTC+00:00)

USA 215 - Pass Details

Date: 14 December 2019
Orbit: 1101 x 1107 km, 123.0° (Epoch: 28 January)

Event Time Altitude Azimuth Distance (km) Brightness Sun altitude
Exits shadow 17:54:37 31° 42° (NE) 1,847 4.0 -21.8°
Maximum altitude 17:57:51 60° 335° (NNW) 1,247 3.5 -22.3°
Drops below altitude 10° 18:04:14 10° 258° (WSW) 2,959 6.6 -23.4°
Sets 18:06:45 0° 255° (WSW) 3,916 7.6 -23.8°
